Flag for Congo Weather past 2 weeks in Brazzaville, Congo

Now
88 °F

Passing clouds.


Feels Like: 94 °F
Forecast: 72 / 86 °F
Wind: 5 mph from West

Location: Brazzaville / Maya-Maya

Current Time: Oct 23, 2014 at 5:12:27 PM

Latest Report: Oct 23, 2014 at 4:00 PM


Visibility: N/A

Pressure: 29.80 "Hg

Humidity: 59%

Dew point: 72 °F

Location of BrazzavilleLocation

Historic Weather in Brazzaville — Graph

°F

Brazzaville temperature yesterday

Maximum temperature yesterday: 90 °F (at 4:00 PM)
Minimum temperature yesterday: 75 °F (at 3:00 AM)
Average temperature yesterday: 81 °F

Past Weeks' High & Low Weather Summary

 TemperatureHumidityPressure
High93 °F (Oct 9, 4:00 PM)100% (Oct 11, 5:28 AM)30.04 "Hg (Oct 11, 5:28 AM)
Low70 °F (Oct 11, 5:28 AM)46% (Oct 11, 5:00 PM)29.77 "Hg (Oct 8, 4:00 PM)
Average79 °F75%29.92 "Hg
* Reported Oct 8 4:00 PM — Oct 23 3:00 PM, Brazzaville, Weather by CustomWeather, © 2014

Note: Actual official high and low records may vary slightly from our data, if they occured in-between our weather recording intervals... More about our weather records

Advertising

Brazzaville weather history for previous 24 hours

 ConditionsComfort  
Time TempWeatherWind HumidityBarometerVisibility
3:00 PM
Oct 23
88 °FScattered clouds.7 mph55%29.83 "HgN/A
2:00 PM88 °FPassing clouds.9 mph55%29.86 "Hg5 mi
1:00 PM86 °FScattered clouds.5 mph59%29.89 "Hg6 mi
12:00 PM84 °FPartly sunny.7 mph62%29.95 "Hg5 mi
11:00 AM81 °FMostly cloudy.7 mph74%29.98 "Hg5 mi
10:00 AM79 °FMostly cloudy.5 mph79%30.01 "Hg5 mi
9:00 AM79 °FMostly cloudy.7 mph79%30.01 "Hg5 mi
8:00 AM79 °FMostly cloudy.5 mph79%30.01 "Hg6 mi
7:00 AM77 °FPartly sunny.2 mph83%29.98 "Hg6 mi
6:00 AM77 °FPartly sunny.2 mph83%29.95 "HgN/A
5:00 AM77 °FPassing clouds.2 mph83%29.92 "Hg5 mi
4:00 AM77 °FPassing clouds.2 mph83%29.92 "Hg5 mi
3:00 AM77 °FPassing clouds.2 mph83%29.92 "Hg5 mi
2:00 AM77 °FPassing clouds.2 mph83%29.92 "Hg5 mi
1:00 AM77 °FPassing clouds.2 mph83%29.95 "Hg5 mi
12:00 AM77 °FPassing clouds.No wind83%29.95 "Hg5 mi
11:00 PM
Oct 22
77 °FThunderstorms. Passing clouds.2 mph83%29.98 "Hg5 mi
10:00 PM77 °FThunderstorms. Passing clouds.3 mph89%29.98 "Hg5 mi
9:00 PM79 °FThunderstorms. Passing clouds.3 mph84%29.95 "Hg5 mi
8:00 PM79 °FThunderstorms. Passing clouds.N/A70%29.89 "Hg5 mi
7:00 PM82 °FThunderstorms. Passing clouds.9 mph70%29.89 "Hg5 mi
6:00 PM88 °FPassing clouds.5 mph55%29.83 "HgN/A
5:00 PM88 °FScattered clouds.7 mph55%29.80 "HgN/A
Weather by CustomWeather, © 2014

See weather overviewHow to use our weather pages